TimeEDT,TemperatureF,Dew PointF,Humidity,Sea Level PressureIn,VisibilityMPH,Wind Direction,Wind SpeedMPH,Gust SpeedMPH,PrecipitationIn,Events,Conditions,WindDirDegrees,DateUTC
12:14 AM,78.8,75.2,89,29.82,7.0,SW,16.1,25.3,N/A,,Scattered Clouds,230,2013-06-28 04:14:00
12:47 AM,78.8,75.2,89,29.82,1.8,WSW,23.0,32.2,0.02,Rain,Heavy Rain,240,2013-06-28 04:47:00
12:51 AM,79.0,75.9,90,29.81,1.0,SW,19.6,32.2,0.14,Rain,Heavy Rain,230,2013-06-28 04:51:00
1:00 AM,78.8,75.2,89,29.81,2.0,SW,24.2,36.8,0.08,Rain,Rain,220,2013-06-28 05:00:00
1:08 AM,78.8,75.2,89,29.81,4.0,SW,15.0,36.8,0.09,Rain,Light Rain,230,2013-06-28 05:08:00
1:51 AM,78.1,75.9,93,29.79,5.0,SSW,13.8,23.0,0.10,,Partly Cloudy,210,2013-06-28 05:51:00
2:13 AM,78.8,75.2,89,29.78,6.0,SSW,16.1,24.2,N/A,,Mostly Cloudy,210,2013-06-28 06:13:00
2:51 AM,75.9,73.9,94,29.77,5.0,SW,18.4,32.2,0.02,Rain,Light Rain,230,2013-06-28 06:51:00
3:51 AM,75.9,72.0,87,29.75,8.0,SW,17.3,24.2,0.00,,Scattered Clouds,230,2013-06-28 07:51:00
4:04 AM,77.0,73.4,89,29.75,8.0,SW,23.0,36.8,N/A,,Mostly Cloudy,220,2013-06-28 08:04:00
4:40 AM,77.0,73.4,89,29.73,2.0,SW,19.6,28.8,0.07,Rain,Rain,220,2013-06-28 08:40:00
4:51 AM,78.1,75.0,90,29.72,3.0,SSW,20.7,31.1,0.09,Rain,Light Rain,210,2013-06-28 08:51:00
5:35 AM,78.8,75.2,89,29.71,6.0,SW,19.6,33.4,0.01,Rain,Light Rain,230,2013-06-28 09:35:00
5:51 AM,78.1,75.0,90,29.71,6.0,WSW,19.6,31.1,0.01,Rain,Light Rain,240,2013-06-28 09:51:00
6:35 AM,78.8,75.2,89,29.73,4.0,SW,17.3,25.3,0.00,,Overcast,230,2013-06-28 10:35:00
6:51 AM,78.1,75.0,90,29.73,5.0,SW,17.3,26.5,0.00,,Overcast,230,2013-06-28 10:51:00
7:23 AM,78.8,75.2,89,29.72,4.0,WSW,15.0,21.9,N/A,,Overcast,240,2013-06-28 11:23:00
7:51 AM,78.1,75.0,90,29.74,4.0,WSW,16.1,21.9,N/A,,Overcast,240,2013-06-28 11:51:00
8:17 AM,78.8,75.2,89,29.72,5.0,WSW,15.0,20.7,N/A,,Mostly Cloudy,240,2013-06-28 12:17:00
8:36 AM,78.8,75.2,89,29.73,5.0,WSW,13.8,26.5,N/A,,Mostly Cloudy,240,2013-06-28 12:36:00
8:51 AM,79.0,75.9,90,29.72,4.0,WSW,15.0,24.2,N/A,,Overcast,240,2013-06-28 12:51:00
9:00 AM,78.8,73.4,83,29.72,5.0,SW,18.4,27.6,N/A,,Overcast,230,2013-06-28 13:00:00
9:17 AM,77.0,73.4,89,29.73,1.8,SW,23.0,31.1,0.04,Rain,Rain,230,2013-06-28 13:17:00
9:28 AM,75.2,73.4,94,29.73,2.0,SW,24.2,33.4,0.05,Rain,Light Rain,230,2013-06-28 13:28:00
9:33 AM,75.2,73.4,94,29.74,3.0,SW,18.4,34.5,0.05,,Overcast,220,2013-06-28 13:33:00
9:43 AM,75.2,73.4,94,29.73,2.0,SW,21.9,32.2,0.06,Rain,Light Rain,220,2013-06-28 13:43:00
9:51 AM,75.0,72.0,90,29.73,4.0,SW,16.1,31.1,0.06,,Overcast,220,2013-06-28 13:51:00
10:14 AM,78.8,73.4,83,29.73,4.0,SW,16.1,29.9,N/A,,Mostly Cloudy,230,2013-06-28 14:14:00
10:22 AM,78.8,75.2,89,29.72,4.0,SW,15.0,24.2,N/A,,Mostly Cloudy,230,2013-06-28 14:22:00
10:34 AM,78.8,75.2,89,29.72,2.5,WSW,16.1,21.9,0.00,Rain,Light Rain,240,2013-06-28 14:34:00
10:51 AM,79.0,75.9,90,29.72,3.0,WSW,18.4,28.8,0.01,,Mostly Cloudy,240,2013-06-28 14:51:00
10:56 AM,78.8,75.2,89,29.72,3.0,WSW,18.4,28.8,0.00,Rain,Light Rain,240,2013-06-28 14:56:00
11:03 AM,78.8,75.2,89,29.73,2.5,WSW,18.4,25.3,0.00,Rain,Light Rain,240,2013-06-28 15:03:00
11:07 AM,78.8,75.2,89,29.73,1.5,WSW,20.7,31.1,0.00,Rain,Light Rain,240,2013-06-28 15:07:00
11:13 AM,75.2,73.4,94,29.72,0.8,SW,13.8,32.2,0.06,Rain,Heavy Rain,230,2013-06-28 15:13:00
11:20 AM,77.0,75.2,94,29.73,0.5,SW,15.0,26.5,0.17,Fog-Rain,Heavy Rain,230,2013-06-28 15:20:00
11:34 AM,78.8,75.2,89,29.72,1.8,SSW,12.7,21.9,0.49,Rain,Light Rain,210,2013-06-28 15:34:00
11:36 AM,78.8,75.2,89,29.71,3.0,SW,12.7,21.9,0.49,,Overcast,220,2013-06-28 15:36:00
11:44 AM,78.8,75.2,89,29.71,1.8,SW,17.3,25.3,0.49,Rain,Light Rain,230,2013-06-28 15:44:00
11:49 AM,78.8,75.2,89,29.71,0.8,SW,21.9,29.9,0.50,Rain,Rain,230,2013-06-28 15:49:00
11:51 AM,78.1,75.9,93,29.72,0.5,SW,17.3,29.9,0.52,Fog-Rain,Heavy Rain,230,2013-06-28 15:51:00
12:00 PM,78.8,75.2,89,29.72,0.5,WSW,11.5,23.0,0.24,Fog-Rain,Heavy Rain,250,2013-06-28 16:00:00
12:09 PM,77.0,75.2,94,29.73,1.0,WSW,16.1,23.0,0.37,Rain,Light Rain,240,2013-06-28 16:09:00
12:14 PM,77.0,75.2,94,29.73,1.8,WSW,13.8,23.0,0.37,Rain,Light Rain,250,2013-06-28 16:14:00
12:18 PM,75.2,75.2,100,29.72,1.2,West,18.4,28.8,0.37,Rain,Light Rain,260,2013-06-28 16:18:00
12:23 PM,75.2,75.2,100,29.73,0.8,West,16.1,28.8,0.48,Rain,Heavy Rain,260,2013-06-28 16:23:00
12:33 PM,71.6,69.8,94,29.73,0.5,WSW,19.6,35.7,0.68,Fog-Rain,Heavy Rain,240,2013-06-28 16:33:00
12:41 PM,71.6,69.8,94,29.73,2.0,WSW,11.5,25.3,0.74,Rain,Light Rain,250,2013-06-28 16:41:00
12:48 PM,71.6,71.6,100,29.73,5.0,WSW,10.4,18.4,0.74,Rain,Light Rain,250,2013-06-28 16:48:00
12:51 PM,73.0,71.1,93,29.73,5.0,West,9.2,-,0.74,Rain,Light Rain,260,2013-06-28 16:51:00
1:13 PM,77.0,75.2,94,29.71,2.5,WSW,9.2,-,0.00,,Overcast,250,2013-06-28 17:13:00
1:30 PM,78.8,75.2,89,29.71,3.0,WSW,15.0,23.0,0.00,,Overcast,250,2013-06-28 17:30:00
1:51 PM,81.0,77.0,88,29.70,4.0,WSW,12.7,21.9,0.00,,Mostly Cloudy,240,2013-06-28 17:51:00
2:46 PM,84.2,77.0,79,29.70,5.0,SW,15.0,23.0,N/A,,Haze,230,2013-06-28 18:46:00
2:51 PM,84.0,77.0,79,29.70,5.0,SW,17.3,24.2,N/A,,Haze,230,2013-06-28 18:51:00
3:24 PM,84.2,77.0,79,29.68,5.0,SW,13.8,24.2,N/A,,Haze,230,2013-06-28 19:24:00
3:51 PM,82.9,77.0,82,29.68,5.0,SW,16.1,25.3,N/A,,Haze,230,2013-06-28 19:51:00
4:51 PM,82.0,75.9,82,29.68,6.0,SW,16.1,27.6,N/A,,Haze,230,2013-06-28 20:51:00
5:51 PM,82.0,75.0,79,29.67,6.0,SW,17.3,28.8,N/A,,Haze,230,2013-06-28 21:51:00
6:51 PM,80.1,75.0,85,29.67,5.0,SW,17.3,25.3,N/A,,Haze,220,2013-06-28 22:51:00
7:51 PM,79.0,75.0,88,29.68,4.0,SW,15.0,24.2,N/A,,Clear,230,2013-06-28 23:51:00
8:19 PM,78.8,75.2,89,29.67,4.0,SW,16.1,24.2,N/A,,Mostly Cloudy,230,2013-06-29 00:19:00
8:51 PM,79.0,75.9,90,29.67,6.0,SW,17.3,27.6,N/A,,Overcast,220,2013-06-29 00:51:00
9:14 PM,78.8,75.2,89,29.68,6.0,SW,16.1,27.6,N/A,,Overcast,230,2013-06-29 01:14:00
9:51 PM,79.0,75.9,90,29.70,5.0,WSW,16.1,26.5,N/A,,Overcast,240,2013-06-29 01:51:00
10:02 PM,78.8,75.2,89,29.71,5.0,WSW,15.0,23.0,N/A,,Overcast,240,2013-06-29 02:02:00
10:25 PM,78.8,75.2,89,29.71,5.0,WSW,16.1,21.9,N/A,,Scattered Clouds,240,2013-06-29 02:25:00
10:49 PM,78.8,75.2,89,29.71,5.0,WSW,13.8,20.7,N/A,,Mostly Cloudy,240,2013-06-29 02:49:00
10:51 PM,79.0,75.9,90,29.71,5.0,WSW,13.8,20.7,N/A,,Mostly Cloudy,240,2013-06-29 02:51:00
11:51 PM,79.0,75.9,90,29.68,5.0,WSW,13.8,19.6,N/A,,Overcast,240,2013-06-29 03:51:00